Terug naar catalogus

STARLINK-33595

ActiefCommunicatieVLEO
NORAD 62766·PAYLOAD·🇺🇸 United States

Gelanceerd Jan 21, 2025 vanaf Vandenberg Space Force Base

Loading…

Volgende Passages (komende 24 uur)

TLE

VersSource: CelesTrak SupGP

Epoch: Sep 15, 2026, 02:32 UTC

1 62766C 25015J   26258.10604167 -.00024552  00000+0 -72547-3 0  2583
2 62766  53.1571 158.6096 0001260  77.7859  96.4211 15.34399788    19

Volg STARLINK-33595 in realtime met AllMySat

Download on the App Store